Location: ???????
(55.4362°N, 38.1183°E)
Time: 17:14:42
(UTC+00:00)

Cosmos 2333 Rocket - Pass Details

Date: 17 June 2021
Orbit: 841 x 861 km, 70.8° (Epoch: 30 July)

Event Time Altitude Azimuth Distance (km) Brightness Sun altitude
Rises 20:57:35 0° 230° (SW) 3,427 5.0 -10.9°
Reaches altitude 10° 21:00:06 10° 235° (SW) 2,492 4.4 -10.9°
Maximum altitude 21:05:43 55° 312° (NW) 1,028 3.0 -11.0°
Drops below altitude 10° 21:11:21 10° 31° (NNE) 2,492 5.6 -11.1°
Sets 21:13:52 0° 36° (NE) 3,428 6.2 -11.1°
